CZ-3C DEB, 40174

Orbit data source: Space-Track

CZ-3C DEB, 40174 is space debris in HEO originally from a launch on Sun, 31 Oct 2010 UTC launched from the Xichang Space Center, China (XSC). Debris objects in space refer to the collection of defunct objects orbiting the Earth. Examples of debris include non-operational satellites, rocket bodies, and fragments generated from explosions, collisions, or faulty payload assembly.

Loading next visibility...
CZ-3C DEB details
Identifier
40174, 2010-057AC
Orbit
HEO
Last TLE update23 hours ago
Origin
Flag of CNCASC (CN / PRC)
ManufacturerCALT
MissionSpacecraft
Bus & MotorUnknown
MassUnknown
Launch date (UTC)
2010-10-31 (14 years ago)
Launch vehicleUnknown
Launch site
Xichang Space Center, China (XSC)
Object type
Payload
Rocket body
Debris
Shape & HBRUnknown
Radar Cross SectionMedium (>0.1 m² and <1 m²)

Expand to show TLE details & history

TLE from 23 hours ago
0 CZ-3C DEB
1 40174U 10057AC  24360.70883015  .00000417  00000-0  34552-2 0  9999
2 40174  19.5742 145.8729 7105370  85.6903 352.3726  2.34770946 87843
Epoch: 2024-12-25T17:00Z
Definitive object data (Epoch: 2024-12-25T17:00:42.924Z)
Latitude9.51451°
Longitude-176.14613°
Altitude2,113.361 km
Speed8.787 km/s
True Right ascension11h 34m 55s
True Declination9° 28' 03"
Sunlit
Object was in daylight at TLE epoch
Visualization TLE readout
Latitude-17.59508°
Longitude38.53112°
Altitude28,244.954 km
Speed2.521 km/s
Apparent Right ascension02h 08m 06s
Apparent Declination-21° 14' 18"
Sunlit
Object is in daylight
Visualization observer readout
Local Sidereal Time15:48:48
Azimuth56.398° ENE
Elevation-61.574°
Doppler factor1
Orbital elements
Apogee altitude34,533.939 km
Perigee altitude545.146 km
Semi-major axis23,917.68 km
Eccentricity0.710537
Inclination19.5742°
RAAN145.8729°
Arg. of periapsis85.6903°
True anomaly304.29388°
Mean anomaly352.3726°
Eccentric anomaly335.47205°
Mean motion0.58677 °/min
BSTAR0.0034552
Orbital period613.53 mins
Loading maneuver chart data...
Loading historical data...
Loading historical data...
Loading historical data...
Loading historical data...
Loading historical data...
Loading historical data...
Loading historical data...

CZ-3C DEB Visibility forecast

Observer location: undefined°, undefined

Span
Click to sort rows by Start time (UTC) header in descending order
Start Az.
Max El. time (UTC)
Max El. Az.
Max El.
End time (UTC)
End Az.
565 mins2024-12-27 00:23:38.327Z223.162° SW2024-12-27 01:43:38.327Z182.529° SSW21.201°2024-12-27 09:48:38.327Z146.645° SSE
|